Temp
15 14 14 15 15 15 16 16 17 17 17 17 17 17 17 17 16 16 16 15 15 15 14 14 14 13 12 12 12 12 11 11 11 11 10 10 9 9 8 8 8 7 7 7 7 7 7 6 6 6 6 6 6 6 6 6 6 6 6 7 7 7 7 7 8 9 10 10 10 11 11 11 12 13 13 14 15 15 15 15 15 16 16 16 17
15 15 15 15 15 16 16 15 16 16 16 17 17 17 17 17 16 16 15 15 15 15 14 14 13 13 12 12 12 12 11 11 11 11 10 10 9 9 8 8 8 7 7 7 7 6 6 6 6 6 6 6 6 6 6 6 6 6 6 6 6 6 6 7 7 7 8 9 9 10 10 11 11 12 12 13 13 14 14 15 15 15 15 16 16
15 15 15 15 15 16 16 15 15 15 16 16 16 17 17 17 16 16 15 15 15 14 14 14 13 13 12 12 12 12 11 11 11 10 10 9 9 9 8 8 8 7 7 7 6 6 6 6 6 6 6 6 6 6 6 6 6 6 6 6 6 6 6 6 6 7 7 8 8 9 9 10 10 11 12 12 13 13 14 14 15 15 15 15 15
15 15 15 15 15 16 16 15 15 15 15 16 16 16 17 16 16 16 15 15 14 14 14 13 13 12 12 12 12 11 11 11 10 10 9 9 9 8 8 8 7 7 7 6 6 6 6 6 6 6 6 6 6 6 6 6 6 6 6 6 6 6 6 6 6 6 6 7 7 7 8 8 9 10 11 12 12 13 13 14 14 14 14 15 15
15 15 15 15 15 16 16 14 14 14 15 15 15 16 16 16 16 15 15 15 14 14 13 13 13 12 12 12 12 11 11 10 10 10 9 9 8 8 8 7 7 7 7 6 6 6 6 5 5 5 6 6 6 6 6 6 6 6 6 6 6 6 6 6 6 6 6 6 7 7 7 7 8 9 9 10 12 12 13 13 14 13 14 14 14
14 14 14 14 15 16 15 14 13 14 14 15 15 15 16 16 15 15 15 14 14 13 13 13 12 12 12 12 11 11 10 10 9 9 8 8 7 7 7 7 7 6 6 6 6 6 5 5 5 5 5 5 5 5 6 6 6 6 6 6 6 6 6 6 6 6 6 6 6 6 6 6 7 8 9 9 10 11 12 13 13 13 13 13 14
13 14 14 14 14 14 15 14 14 14 14 14 14 14 15 15 15 15 15 14 14 13 13 12 12 12 11 11 11 10 10 9 9 8 8 7 7 7 7 7 6 6 6 6 6 5 5 5 5 5 5 5 5 5 5 5 5 5 5 5 5 6 6 6 6 6 6 6 6 6 6 6 6 7 7 8 9 10 11 11 12 12 13 12 13
12 13 13 14 13 13 14 14 14 13 13 13 13 13 14 14 15 15 14 14 13 13 12 12 11 11 11 10 10 9 9 8 8 7 7 7 7 7 6 6 6 6 5 5 5 5 5 5 5 5 5 5 5 5 5 5 5 5 5 5 5 5 5 5 5 5 5 5 5 5 6 6 6 6 6 7 8 9 10 10 11 11 12 12 12
12 12 12 13 13 14 13 13 13 13 13 12 13 14 14 14 14 14 14 13 13 13 12 12 11 10 10 9 9 9 8 8 7 7 7 7 7 6 6 6 5 5 5 5 5 5 5 5 5 5 5 5 5 5 5 5 5 5 5 5 5 5 5 4 5 5 5 5 5 5 5 5 5 6 6 6 7 8 9 10 10 10 11 11 11
12 12 12 12 13 13 13 13 13 13 13 13 13 14 13 13 14 13 13 13 12 12 12 11 11 10 9 9 8 8 7 7 7 7 7 7 6 6 6 5 5 5 4 4 4 4 4 4 4 4 4 4 4 4 4 5 5 5 5 5 4 4 4 4 4 4 4 5 5 5 5 5 5 5 6 6 7 7 8 8 9 10 10 10 11
12 12 12 12 12 12 12 12 12 12 12 12 12 13 12 12 12 12 12 12 12 11 11 10 10 9 9 9 8 8 7 7 7 7 7 7 6 6 5 5 5 4 4 4 4 4 4 4 4 4 4 4 4 4 4 4 4 4 4 4 4 4 4 4 4 4 4 4 5 5 5 5 5 5 6 6 6 7 7 8 8 9 9 9 10
11 11 12 12 12 12 12 12 12 12 12 12 12 12 12 12 11 11 12 11 11 11 10 10 9 9 9 8 8 8 8 7 7 7 7 6 6 5 5 5 4 4 4 4 3 3 3 3 3 3 3 3 3 3 3 3 4 4 4 4 4 4 4 4 4 4 4 4 4 4 5 5 5 5 5 6 6 6 7 7 7 8 9 9 9
10 11 11 11 11 11 12 11 11 11 12 12 11 11 11 11 11 11 11 11 11 10 10 9 9 8 8 8 8 8 8 7 7 7 7 6 5 5 5 4 4 4 4 4 3 3 3 2 2 2 2 2 2 2 3 3 3 3 3 4 4 4 4 4 4 4 4 3 3 3 4 4 5 5 5 5 6 6 6 7 7 7 8 8 9
10 10 11 11 11 11 11 11 11 11 11 11 11 10 10 10 10 11 10 10 10 10 9 9 9 8 8 8 8 8 8 7 7 7 7 6 6 5 5 4 4 4 4 4 3 3 2 2 1 1 1 1 1 2 2 2 2 3 3 3 3 3 4 4 4 4 4 3 3 3 3 4 4 4 5 5 5 6 6 6 7 7 7 8 8
9 9 10 11 11 10 11 11 10 10 10 10 9 9 9 9 10 10 10 10 10 9 9 9 8 8 8 8 8 8 8 8 7 7 6 6 6 5 5 4 4 4 3 3 3 2 2 2 1 1 1 1 1 1 1 2 2 2 2 2 3 3 3 3 3 3 3 3 3 3 3 3 3 4 4 4 5 5 5 6 6 7 7 7 7
8 9 9 10 10 10 10 10 10 10 10 9 9 8 9 10 10 10 10 10 10 9 9 9 9 8 8 8 8 8 8 7 7 7 6 6 6 5 4 4 3 3 3 3 2 2 2 1 1 0 0 0 0 0 1 1 1 2 2 2 2 2 3 3 3 3 3 3 3 3 3 3 3 3 3 4 4 4 5 5 5 6 6 6 7
7 8 9 10 10 10 10 10 10 9 9 9 8 9 10 11 10 10 10 9 9 9 9 9 9 8 8 8 8 8 8 7 7 7 6 6 5 5 4 4 3 3 3 2 2 2 1 1 0 0 -0 -0 -0 -0 0 0 0 1 1 1 2 2 2 2 2 2 2 2 3 3 3 3 3 3 3 3 3 4 4 4 4 5 5 6 6
7 8 9 9 9 9 10 10 9 9 9 9 8 9 10 10 10 10 10 9 9 9 9 8 8 8 8 8 8 8 8 7 7 7 6 6 5 5 4 3 3 3 2 2 2 1 1 1 0 -0 -0 -0 -0 -1 -1 -1 -1 -0 -0 0 1 1 1 1 2 2 2 2 2 2 2 2 2 2 2 3 3 3 4 4 4 5 5 6 6
6 7 8 9 9 9 9 9 9 9 9 8 8 9 10 10 10 10 10 9 9 9 8 8 8 7 7 8 8 8 8 7 7 7 6 5 5 4 4 3 3 2 2 1 1 1 0 0 -0 -0 -0 -0 -1 -1 -1 -1 -1 -1 -1 -1 -0 0 1 1 1 1 1 1 1 2 2 2 2 2 2 2 3 3 4 4 4 4 5 5 6
6 7 8 9 8 9 9 9 9 9 9 8 9 9 10 10 9 9 9 9 9 9 8 8 7 7 8 8 8 8 7 7 7 6 6 5 5 4 4 3 3 2 1 1 0 0 0 -0 -0 -0 -0 -1 -1 -1 -1 -1 -1 -1 -1 -1 -1 -0 -0 0 0 1 1 1 1 1 1 1 1 1 2 2 3 3 3 4 4 4 4 5 6
6 7 8 8 8 8 9 9 9 9 9 9 9 9 9 9 9 9 9 8 8 8 8 8 8 8 8 8 8 7 7 7 6 6 5 5 5 5 4 3 3 2 1 0 0 -0 -0 -0 -0 -0 -1 -1 -1 -1 -1 -1 -1 -1 -1 -1 -1 -1 -1 -1 -0 -0 -0 0 0 0 0 1 1 1 1 2 2 3 3 4 4 4 4 5 5
6 7 7 7 8 8 9 9 9 9 8 9 9 9 9 8 8 8 8 8 8 8 8 8 8 8 8 8 7 7 7 6 6 6 6 5 5 5 4 3 3 2 1 0 -0 -1 -1 -1 -1 -1 -1 -1 -2 -2 -2 -2 -2 -2 -2 -2 -2 -1 -1 -1 -1 -1 -1 -1 -0 -0 0 0 1 1 1 2 2 2 3 3 4 4 4 5 5
6 7 7 7 8 8 8 8 8 7 7 7 8 9 8 8 8 8 8 8 8 8 8 8 8 8 7 7 7 6 6 6 6 6 6 6 5 5 4 3 2 2 0 -0 -1 -1 -1 -1 -2 -2 -2 -2 -2 -2 -2 -2 -2 -2 -2 -2 -2 -2 -2 -2 -1 -1 -1 -1 -1 -1 -0 -0 0 1 1 1 2 2 3 3 3 4 4 5 5
6 6 7 7 8 8 8 7 7 7 7 7 8 8 8 8 8 9 9 9 9 9 9 8 8 7 7 7 7 7 7 6 6 6 6 5 5 4 4 3 2 1 0 -1 -1 -1 -2 -2 -2 -2 -2 -2 -2 -2 -2 -2 -2 -2 -2 -2 -2 -2 -2 -2 -2 -1 -1 -1 -1 -1 -1 -0 0 0 1 1 1 2 2 3 3 4 4 4 5
6 6 7 7 7 7 7 6 7 7 8 8 8 8 7 8 8 9 9 9 9 9 8 8 7 7 7 7 7 7 7 6 6 6 5 5 4 4 3 2 1 0 -0 -1 -2 -2 -2 -2 -2 -2 -2 -2 -2 -2 -2 -2 -2 -2 -2 -2 -2 -2 -2 -2 -1 -1 -1 -1 -1 -1 -1 -1 -0 0 0 1 1 1 2 2 3 3 4 4 4
6 6 7 7 7 6 6 6 7 7 7 7 8 8 8 8 9 9 9 9 8 8 8 7 7 7 7 7 7 7 6 6 5 5 5 4 4 3 2 1 1 -0 -1 -2 -2 -2 -2 -2 -2 -2 -2 -2 -2 -2 -2 -2 -2 -2 -2 -1 -1 -1 -1 -1 -1 -1 -1 -1 -1 -1 -1 -1 -0 -0 0 0 1 1 1 2 3 3 4 4 4
6 6 6 6 6 7 7 7 7 7 7 7 8 9 9 9 8 8 8 8 8 8 8 7 7 7 7 7 6 6 6 5 5 4 4 3 2 2 1 0 -1 -1 -2 -2 -2 -2 -2 -2 -2 -2 -2 -2 -2 -2 -2 -2 -2 -2 -1 -1 -1 -1 -1 -1 -1 -1 -1 -1 -1 -1 -1 -1 -0 -0 -0 0 0 1 1 2 2 3 3 4 4
6 6 6 6 6 7 7 7 6 6 7 8 9 9 8 8 8 8 8 8 8 8 8 7 7 7 7 6 6 5 5 5 4 3 2 2 1 0 -0 -1 -2 -2 -2 -2 -3 -3 -2 -3 -3 -2 -2 -2 -2 -2 -2 -2 -2 -1 -1 -1 -1 -1 -1 -1 -1 -1 -1 -1 -1 -1 -1 -1 -0 -0 -0 0 0 1 1 2 2 3 3 3 3
6 6 6 6 6 6 6 6 6 6 6 8 8 8 8 8 9 9 8 8 8 8 8 7 7 7 6 6 5 4 4 3 3 2 2 1 0 -1 -1 -2 -2 -3 -3 -3 -3 -3 -3 -3 -2 -2 -2 -2 -2 -2 -2 -2 -1 -1 -1 -1 -1 -1 -1 -1 -1 -1 -1 -1 -1 -1 -1 -1 -0 -0 -0 0 0 1 1 2 2 3 3 3 3
6 5 5 5 5 6 6 6 6 6 7 8 8 9 9 9 8 8 8 8 8 8 7 7 7 6 6 5 4 4 3 3 2 2 1 0 -0 -1 -2 -2 -3 -3 -3 -3 -3 -3 -3 -2 -2 -2 -2 -2 -2 -2 -2 -2 -2 -1 -1 -1 -1 -1 -1 -1 -1 -1 -1 -1 -1 -1 -1 -1 -1 -0 -0 0 1 1 1 2 2 3 3 3 3
5 5 5 5 5 6 5 6 7 8 9 9 9 9 8 8 8 8 8 8 8 7 7 7 6 6 5 5 4 3 3 2 2 1 0 -0 -1 -2 -2 -3 -3 -3 -3 -3 -3 -3 -2 -2 -2 -2 -2 -2 -2 -2 -2 -2 -2 -2 -2 -1 -1 -1 -1 -1 -0 -0 -0 -1 -1 -1 -1 -1 -1 -0 -0 0 1 1 1 2 2 2 3 3 3
5 5 5 6 6 6 7 8 9 9 9 9 9 9 8 8 8 8 8 8 8 7 7 6 6 5 5 4 4 3 2 2 1 0 -0 -1 -2 -2 -3 -3 -3 -3 -3 -3 -3 -3 -2 -2 -2 -2 -2 -2 -2 -2 -2 -2 -2 -2 -2 -2 -2 -1 -1 -1 -1 -0 -0 -1 -1 -1 -1 -1 -1 -0 -0 0 1 1 2 2 2 2 2 3 3
6 6 7 7 7 8 8 9 10 10 9 9 9 9 8 8 8 8 8 8 7 7 6 6 6 5 5 4 3 2 2 1 1 0 -1 -1 -2 -3 -3 -3 -3 -3 -3 -3 -3 -3 -3 -2 -2 -2 -2 -2 -2 -2 -2 -2 -2 -2 -2 -2 -2 -1 -1 -1 -1 -0 -0 -0 -0 -0 -1 -1 -0 -0 -0 0 1 1 2 2 2 2 2 3 3
7 8 8 8 8 8 9 10 9 9 9 9 9 9 8 8 8 8 8 7 7 6 6 6 5 5 4 3 3 2 2 1 1 0 -1 -2 -3 -3 -3 -3 -3 -3 -3 -3 -3 -3 -3 -3 -3 -2 -2 -2 -2 -2 -2 -2 -2 -2 -2 -2 -2 -2 -1 -1 -1 -0 -0 -0 -0 -0 -0 -0 -0 -0 0 0 0 1 2 2 2 2 2 3 3
7 7 7 7 7 9 9 10 10 9 9 9 9 9 8 8 8 8 8 7 7 6 5 5 5 4 4 3 3 2 2 1 1 0 -1 -2 -3 -3 -3 -3 -3 -3 -3 -3 -3 -3 -3 -3 -3 -3 -3 -3 -3 -2 -2 -2 -2 -2 -2 -2 -2 -2 -2 -1 -1 -1 -0 -0 -0 -0 -0 -0 -0 -0 0 0 1 1 1 2 2 2 2 3 3
6 6 6 7 9 10 10 10 10 9 9 9 9 9 8 8 8 8 7 7 6 6 5 5 4 4 3 3 3 2 2 2 1 0 -1 -2 -3 -3 -3 -3 -3 -3 -3 -3 -3 -3 -3 -3 -3 -3 -3 -3 -3 -3 -3 -3 -3 -2 -2 -2 -2 -2 -2 -1 -1 -1 -0 -0 0 0 -0 -0 0 0 0 1 1 1 1 2 2 2 2 3 2
7 7 8 9 10 10 10 10 9 9 9 9 9 8 8 8 8 7 7 7 6 6 5 4 4 4 3 3 2 2 2 2 1 1 0 -1 -2 -3 -3 -3 -3 -3 -3 -3 -3 -3 -3 -3 -3 -3 -3 -3 -3 -3 -3 -3 -3 -3 -2 -2 -2 -2 -2 -1 -1 -1 -0 -0 0 0 0 0 0 0 1 1 1 1 1 2 2 2 2 2 2
9 10 10 10 10 10 10 9 9 9 9 9 8 8 8 8 7 7 7 6 6 5 5 4 4 3 3 3 2 2 2 2 2 1 1 -0 -2 -3 -3 -3 -3 -3 -3 -3 -3 -3 -3 -3 -3 -3 -3 -3 -3 -3 -3 -3 -3 -3 -3 -2 -2 -2 -2 -1 -1 -0 -0 -0 0 0 0 0 0 1 1 1 1 1 1 1 2 2 2 2 2
9 10 10 10 10 10 9 9 9 9 9 8 8 8 8 8 7 7 6 6 6 5 4 4 3 3 3 2 2 2 2 2 1 -0 -1 -2 -3 -3 -3 -3 -3 -3 -3 -3 -3 -3 -3 -3 -3 -3 -3 -3 -3 -3 -3 -3 -3 -3 -3 -2 -2 -2 -2 -1 -1 -1 -0 -0 0 0 1 1 1 1 1 1 1 1 1 1 2 2 2 1 2
9 10 10 10 10 9 9 9 9 8 8 8 8 8 8 7 7 6 6 6 5 5 4 4 3 3 2 2 2 2 1 1 0 -1 -2 -2 -3 -3 -3 -3 -3 -3 -3 -3 -3 -3 -3 -3 -3 -3 -3 -3 -3 -3 -3 -3 -3 -3 -3 -3 -2 -2 -2 -1 -1 -1 -0 -0 0 0 1 1 1 1 1 2 2 2 2 2 2 2 2 1 1
10 9 9 9 9 8 8 8 8 8 8 8 8 8 7 7 6 6 6 5 5 4 4 3 3 2 2 2 2 2 1 1 1 -0 -2 -2 -3 -3 -3 -3 -3 -3 -3 -3 -3 -3 -3 -3 -3 -3 -3 -3 -3 -3 -3 -3 -3 -3 -3 -3 -3 -2 -2 -1 -1 -1 -0 -0 0 1 1 1 1 2 2 2 2 2 2 2 2 1 1 1 1
9 8 8 7 7 7 7 7 7 8 8 8 7 7 7 6 6 5 5 5 4 4 3 3 2 2 2 2 2 2 1 1 1 0 -0 -1 -2 -2 -2 -2 -2 -2 -3 -3 -3 -3 -3 -3 -3 -3 -3 -3 -3 -3 -3 -3 -3 -3 -3 -3 -3 -2 -2 -2 -1 -1 -0 -0 0 0 1 1 1 2 2 2 2 2 2 2 1 1 1 1 0
8 8 7 7 7 7 7 7 7 7 7 6 6 5 5 5 5 4 4 4 3 3 3 2 2 2 2 2 2 2 2 1 1 0 0 -0 -1 -1 -2 -2 -2 -2 -3 -3 -3 -3 -3 -3 -3 -3 -3 -3 -3 -3 -3 -3 -3 -3 -3 -3 -3 -2 -2 -2 -1 -1 -1 -0 -0 0 1 1 1 1 1 2 2 2 1 1 1 1 0 0 0
8 7 7 7 7 7 6 6 6 6 5 5 4 4 4 4 3 3 3 3 2 2 2 1 1 1 1 2 2 2 2 1 1 0 0 -0 -1 -1 -1 -2 -2 -2 -3 -3 -3 -3 -3 -3 -3 -3 -3 -3 -3 -3 -3 -3 -3 -3 -3 -3 -3 -2 -2 -2 -1 -1 -1 -1 -0 0 0 1 1 1 1 1 1 1 1 1 0 0 -0 -0 0
8 7 7 6 6 5 5 5 5 4 4 4 3 3 3 2 2 2 2 2 1 1 0 0 0 1 1 1 1 2 1 1 0 -0 0 -0 -1 -1 -1 -2 -2 -2 -2 -3 -3 -3 -3 -3 -3 -3 -3 -3 -3 -3 -3 -3 -3 -3 -2 -2 -2 -2 -2 -2 -1 -1 -1 -1 -0 -0 0 0 0 0 0 1 1 0 0 -0 -0 -0 -0 -0 -0
7 6 6 5 5 4 4 4 3 3 3 3 2 2 1 1 1 1 1 0 -0 -0 -0 -0 -0 -0 -0 -0 0 1 1 -0 -1 -1 -0 -0 -1 -1 -1 -2 -2 -2 -2 -3 -3 -3 -3 -3 -3 -4 -4 -4 -3 -3 -3 -3 -3 -2 -2 -2 -2 -2 -2 -2 -1 -1 -1 -1 -1 -0 -0 -0 -0 -0 -0 -0 -0 -0 -0 -0 -0 -0 -0 -0 -0
5 5 4 4 3 3 3 3 2 2 2 1 1 0 -0 -0 -0 -1 -1 -1 -1 -2 -2 -2 -2 -2 -3 -3 -2 -2 -1 -2 -2 -2 -1 -1 -1 -1 -1 -2 -2 -2 -2 -2 -3 -3 -3 -3 -3 -4 -4 -4 -4 -3 -3 -3 -3 -2 -2 -2 -2 -2 -2 -2 -1 -1 -1 -1 -1 -1 -1 -1 -1 -1 -0 -0 -0 -1 -1 -1 -1 -0 -1 -1 -1
4 3 3 2 2 2 1 1 1 0 -0 -1 -2 -2 -3 -3 -3 -3 -3 -4 -4 -4 -4 -4 -4 -4 -5 -5 -5 -4 -4 -3 -3 -3 -2 -2 -2 -1 -1 -1 -2 -2 -2 -2 -3 -3 -3 -3 -3 -4 -4 -4 -4 -4 -3 -3 -3 -3 -2 -2 -2 -2 -2 -1 -1 -1 -1 -1 -1 -1 -1 -1 -1 -1 -1 -1 -1 -1 -1 -1 -1 -1 -1 -1 -1
2 2 1 1 0 -1 -1 -1 -2 -2 -3 -4 -4 -4 -4 -5 -5 -5 -5 -5 -5 -5 -5 -5 -6 -6 -6 -6 -6 -6 -5 -4 -4 -4 -4 -3 -2 -2 -1 -1 -2 -2 -2 -2 -3 -3 -3 -3 -4 -4 -4 -4 -4 -4 -4 -3 -3 -3 -2 -2 -2 -2 -1 -1 -1 -1 -1 -1 -1 -1 -1 -1 -1 -1 -1 -1 -1 -1 -1 -1 -1 -1 -1 -1 -1
1 -0 -1 -2 -2 -3 -3 -4 -4 -4 -4 -4 -4 -5 -5 -5 -5 -5 -5 -5 -5 -6 -6 -6 -6 -6 -6 -6 -6 -6 -6 -5 -5 -4 -4 -4 -4 -3 -2 -1 -2 -2 -2 -3 -3 -3 -3 -3 -4 -4 -4 -4 -4 -4 -4 -3 -3 -3 -2 -2 -2 -2 -1 -1 -1 -1 -1 -1 -1 -1 -1 -1 -1 -1 -1 -1 -1 -1 -1 -1 -1 -1 -1 -1 -1
-2 -3 -3 -4 -4 -4 -4 -4 -4 -4 -4 -4 -4 -5 -5 -5 -5 -5 -5 -6 -6 -6 -6 -6 -7 -7 -7 -7 -7 -7 -7 -7 -6 -5 -5 -4 -4 -4 -3 -2 -2 -2 -2 -2 -3 -3 -3 -3 -3 -4 -4 -4 -4 -4 -4 -3 -3 -3 -2 -2 -2 -1 -1 -1 -1 -1 -1 -1 -1 -1 -1 -1 -1 -1 -1 -1 -1 -1 -1 -1 -1 -1 -1 -1 -1
Height
785 787 790 792 795 795 796 798 798 799 799 799 800 801 802 803 805 807 809 811 812 813 815 816 817 818 819 819 820 820 820 821 821 822 823 823 824 824 824 825 825 825 825 825 825 824 824 824 824 824 824 824 824 823 823 822 821 821 820 820 819 819 818 818 817 811 806 806 807 806 806 806 805 804 803 801 800 800 800 799 799 799 799 799 798
781 784 786 788 789 791 794 795 796 797 797 798 798 799 800 802 803 805 807 808 810 811 813 814 815 817 817 818 819 819 819 820 820 820 821 822 822 822 822 822 823 823 823 823 823 823 823 822 822 822 822 821 822 822 821 821 821 820 820 819 818 818 818 817 816 813 806 803 804 804 803 804 803 802 802 800 799 798 797 796 796 796 796 796 795
778 781 783 785 787 789 790 792 794 795 795 795 796 797 798 799 801 803 804 806 808 809 811 812 814 815 816 817 817 818 818 818 818 819 819 820 820 820 821 821 820 820 820 820 820 821 821 821 821 821 820 820 819 820 820 819 819 819 818 818 817 816 816 816 814 813 808 802 801 802 801 801 800 799 799 799 797 796 795 794 794 793 793 793 792
776 778 780 781 784 785 784 785 788 790 790 791 792 794 795 797 798 800 802 804 806 807 809 810 812 813 815 816 816 817 817 818 818 818 818 819 819 819 819 819 819 819 818 818 818 818 818 818 818 818 818 818 817 817 818 817 817 817 816 816 815 814 814 814 812 811 809 803 800 800 800 799 798 798 797 797 796 794 793 792 791 791 790 790 790
775 775 776 778 779 781 780 780 781 783 785 786 787 789 791 793 795 797 799 802 804 805 807 808 810 811 813 814 815 816 816 817 817 818 818 818 818 818 818 818 818 817 817 817 816 816 816 815 815 815 815 815 815 815 815 815 815 815 814 813 813 812 811 811 810 809 808 804 799 797 798 797 796 795 796 795 793 792 791 790 789 788 787 787 787
774 774 775 775 776 777 777 777 778 778 780 781 782 784 786 788 791 793 796 798 800 803 805 807 808 809 811 812 814 815 816 817 817 817 818 817 817 817 816 816 816 816 816 816 815 814 814 813 813 813 813 812 812 811 811 812 812 812 812 811 811 810 809 809 808 807 806 804 800 796 795 795 794 793 793 794 792 790 789 788 787 787 786 785 784
773 773 773 773 773 773 773 774 775 776 777 779 780 782 784 785 787 790 792 794 797 799 802 805 807 808 809 811 812 814 815 816 816 817 817 817 816 816 815 815 815 814 814 814 813 813 812 811 811 810 810 809 809 808 808 808 808 808 808 808 808 808 807 806 806 805 804 802 800 796 793 793 793 791 791 792 791 789 788 787 785 784 784 783 782
772 772 772 771 771 771 771 772 773 774 776 778 781 784 786 786 786 787 789 791 793 795 798 801 804 806 808 809 810 812 813 815 815 816 816 816 816 815 814 814 813 812 812 811 811 811 810 809 809 808 807 807 806 806 805 805 805 804 804 805 804 804 804 803 802 802 801 800 797 795 792 790 790 790 789 789 789 787 787 786 784 783 782 781 780
770 770 770 769 769 768 769 770 771 773 774 775 778 781 784 785 785 785 787 789 791 793 796 799 801 804 806 807 809 810 812 813 814 815 815 815 815 814 813 812 811 810 810 809 808 808 807 806 806 805 805 804 804 803 803 803 802 801 801 801 801 800 800 800 799 798 798 796 795 793 791 788 788 788 787 787 787 786 785 785 783 782 781 780 779
769 768 767 767 767 767 768 768 769 770 771 773 775 776 778 781 782 782 785 788 790 793 795 797 800 802 804 805 807 809 810 812 813 814 814 814 813 813 812 811 810 809 807 806 805 805 804 803 803 802 802 801 801 800 799 799 799 798 798 798 798 797 796 796 796 796 795 793 792 791 789 786 785 786 785 785 785 784 784 783 782 781 780 778 776
768 767 766 765 765 766 766 766 767 768 769 771 773 774 775 777 779 782 784 787 790 792 795 797 799 801 803 804 805 807 809 810 812 813 813 813 812 811 810 809 808 807 806 804 803 801 801 800 800 799 798 798 797 796 796 795 795 795 794 794 794 794 794 792 792 792 792 790 789 788 787 783 782 783 783 783 783 783 782 782 781 780 779 777 775
767 766 765 764 764 764 764 764 765 765 766 768 769 771 773 775 779 783 784 786 788 791 795 797 799 801 802 803 805 806 807 808 810 811 811 811 810 809 809 808 807 806 804 802 801 799 798 797 796 796 795 794 794 793 792 791 790 790 790 790 790 790 790 789 788 788 788 787 786 785 784 782 780 780 781 781 781 780 780 780 780 779 777 776 774
764 763 763 762 762 762 762 762 763 763 764 765 767 770 771 772 775 779 782 783 784 787 792 795 798 799 801 802 803 804 805 807 808 809 809 809 808 807 806 806 805 804 803 801 799 797 796 794 793 792 792 791 791 790 788 787 786 786 785 785 785 784 785 785 785 784 784 784 782 780 780 780 778 776 778 779 779 778 778 777 777 777 775 774 772
763 762 761 761 760 760 761 761 761 762 764 766 767 769 771 772 774 777 781 783 783 785 789 793 796 797 798 800 801 802 804 805 806 807 807 806 806 805 804 803 802 802 801 799 797 795 794 792 791 789 789 788 787 786 785 784 782 781 780 780 779 779 779 779 780 780 780 779 778 776 776 777 775 774 775 777 776 776 775 774 774 774 773 771 770
761 760 759 759 759 759 759 759 760 762 763 765 766 768 770 773 776 778 781 783 784 785 788 791 794 796 797 797 798 800 802 803 803 804 804 804 803 802 801 800 800 799 798 797 795 793 792 790 789 787 786 785 784 783 782 781 779 777 776 775 774 774 774 774 775 775 775 775 774 772 772 773 773 772 772 773 773 773 772 771 771 771 769 768 767
759 758 757 757 756 757 757 758 759 760 761 762 764 766 768 771 774 777 779 781 783 785 787 790 792 794 795 795 796 798 799 800 801 801 801 801 800 799 799 798 797 796 795 794 793 791 789 788 786 785 783 782 781 781 780 779 776 774 772 770 770 769 768 769 770 770 770 770 769 769 768 769 769 769 768 769 768 769 770 768 767 767 767 765 763
757 756 755 754 754 754 755 756 757 758 759 760 762 763 765 768 771 775 778 780 782 784 787 790 791 793 795 794 795 796 797 798 798 798 798 798 797 797 796 795 794 793 791 790 789 788 787 785 784 782 780 780 779 778 778 777 774 772 769 767 765 764 763 764 765 765 765 765 764 764 764 764 764 764 764 764 764 766 767 763 762 764 764 761 760
754 753 752 752 751 752 753 754 755 756 757 759 761 762 764 765 769 773 777 779 780 783 786 789 791 793 795 795 795 795 796 796 796 796 796 796 795 794 793 792 791 789 787 786 785 784 783 782 781 779 778 777 776 775 775 774 771 769 767 764 761 759 759 760 760 760 760 760 760 759 759 759 759 758 758 758 759 761 762 758 758 762 761 758 757
751 750 749 749 749 750 751 752 753 754 755 757 759 761 763 765 768 772 776 778 780 782 785 787 790 793 794 795 794 794 794 795 794 794 794 794 793 792 790 789 787 785 784 782 781 780 779 778 777 776 774 773 772 772 771 771 768 766 764 762 758 755 756 757 756 755 755 755 754 754 753 753 754 753 753 753 753 755 755 753 755 757 755 754 755
749 748 747 746 746 747 748 749 750 752 753 755 757 759 762 765 768 771 774 777 779 781 784 787 790 792 793 793 793 793 793 793 793 793 792 791 791 789 788 786 783 782 780 779 778 777 775 774 773 772 770 769 768 767 767 766 764 762 761 758 754 752 753 753 752 752 751 749 749 749 748 748 748 748 747 748 748 748 748 748 750 751 750 750 752
746 745 744 744 744 744 745 746 748 749 751 753 756 758 761 763 767 770 773 775 778 780 783 786 789 790 791 792 792 792 792 792 792 791 790 789 788 787 785 783 781 779 777 776 774 772 770 769 768 766 765 764 762 762 761 760 759 757 755 753 750 749 750 749 748 748 747 745 744 743 742 743 743 742 742 742 742 743 743 743 744 745 745 746 747
743 742 742 741 741 742 743 744 746 748 750 751 753 756 759 761 764 768 771 773 776 779 782 784 786 788 789 790 790 790 791 791 790 790 788 787 786 784 782 780 778 776 773 771 769 768 766 764 763 761 760 759 757 756 755 754 753 751 749 747 746 745 745 744 744 744 742 740 739 738 737 737 736 736 736 735 736 737 738 738 739 740 740 741 742
739 739 739 739 739 740 741 743 745 747 750 751 751 752 756 759 762 766 769 772 775 778 781 783 785 787 788 789 789 789 789 789 789 788 786 785 783 781 780 778 776 773 770 767 765 763 761 760 758 757 755 754 752 750 748 747 746 744 742 741 740 739 739 738 738 738 737 735 734 732 731 732 731 730 730 730 730 731 732 733 734 735 735 736 737
736 736 736 736 738 739 740 742 744 747 751 755 755 755 757 759 763 766 769 772 775 777 780 783 784 786 787 788 788 788 788 788 787 786 784 782 780 779 777 774 772 770 766 763 761 759 757 756 754 752 750 748 746 744 742 741 739 737 736 734 733 733 733 732 731 731 730 729 728 726 725 725 725 724 724 725 725 726 727 728 729 730 730 731 732
733 733 734 735 736 738 740 743 745 747 751 755 757 758 761 763 766 768 770 772 774 777 780 782 784 785 786 786 786 786 786 785 785 783 782 779 777 775 773 770 768 765 762 759 757 755 753 751 749 747 745 743 740 738 736 734 732 731 729 728 728 727 726 725 724 724 723 721 720 719 718 718 718 718 719 720 721 722 723 723 724 725 725 726 727
730 731 732 733 735 737 739 743 747 751 754 756 757 760 763 766 767 769 770 772 775 777 780 782 784 784 784 784 784 783 783 783 782 781 779 776 774 771 768 765 763 761 758 755 753 751 749 747 745 743 740 738 735 733 730 728 727 725 724 723 722 721 720 719 718 717 715 714 713 711 710 711 712 713 714 715 716 717 718 719 719 720 721 722 722
727 728 729 731 734 736 738 742 748 752 756 758 760 761 763 765 767 769 770 772 774 777 779 781 782 783 782 782 781 781 781 781 780 778 775 773 770 767 764 761 758 756 755 753 751 748 746 744 741 738 735 732 730 728 726 724 722 720 719 718 717 715 714 712 711 710 708 707 706 705 704 706 707 708 709 710 710 711 713 714 715 715 717 718 718
725 726 728 730 733 735 737 742 747 751 755 758 760 762 763 764 766 768 769 772 774 777 779 780 780 780 780 780 780 780 780 779 777 775 772 769 766 763 760 758 756 755 753 751 749 746 743 740 737 733 731 728 725 724 722 721 719 717 715 713 711 709 708 706 705 704 702 701 700 700 700 701 702 702 703 704 705 706 708 709 710 711 713 714 713
722 724 727 730 733 736 739 743 748 751 754 758 761 762 763 765 766 768 770 772 774 776 777 778 778 779 779 779 779 778 777 776 774 772 770 767 764 761 759 758 756 754 752 749 746 743 739 736 733 730 728 725 723 721 719 717 715 713 711 709 707 705 703 701 699 698 696 696 695 695 695 695 696 697 698 699 700 701 703 705 706 707 708 708 708
720 723 726 729 733 736 741 745 749 752 754 757 760 762 764 766 767 768 770 772 774 775 775 776 776 777 777 777 777 777 776 774 773 770 768 765 763 761 759 757 755 752 749 747 743 740 737 734 731 728 726 724 721 719 716 714 711 708 706 704 702 700 699 696 694 692 691 690 689 689 689 690 691 692 693 694 695 697 699 700 701 702 703 704 704
719 723 727 730 733 736 740 745 749 752 754 756 759 761 764 766 767 769 770 772 773 774 774 774 775 775 775 775 776 776 775 774 771 769 766 763 761 759 757 755 752 750 747 744 741 738 735 732 729 727 725 722 719 716 713 711 708 705 702 700 698 696 694 692 689 687 686 685 684 684 685 685 686 687 688 689 691 693 694 695 697 697 698 699 700
719 724 728 732 736 738 741 745 749 752 754 756 758 760 762 764 766 768 770 771 772 772 772 773 773 773 774 775 775 775 774 772 770 767 765 762 760 757 755 752 750 747 745 742 739 737 734 731 728 725 723 720 717 714 711 708 705 702 699 696 694 692 690 687 685 683 682 680 680 680 680 681 681 683 684 686 687 689 689 690 692 693 694 695 696
721 726 728 732 737 740 743 746 750 752 754 756 758 760 761 763 765 767 769 770 771 771 771 772 773 773 774 774 775 774 773 771 769 766 763 760 758 755 753 750 748 746 743 741 738 735 733 730 727 724 721 718 714 711 708 705 702 700 697 694 690 688 685 683 681 679 677 676 675 675 676 676 677 679 680 682 684 685 686 686 688 690 691 691 692
725 730 732 734 739 742 745 748 750 752 754 755 757 759 761 763 765 766 768 769 770 770 771 772 772 773 774 774 775 774 772 770 767 764 761 758 756 754 751 749 746 744 742 739 737 734 731 729 726 723 719 716 713 709 706 703 700 697 694 691 687 684 681 679 677 675 673 672 671 671 672 673 674 675 676 678 680 682 683 684 685 686 687 688 689
731 735 737 739 741 744 746 748 750 752 754 755 757 760 762 764 765 766 767 768 769 770 771 772 772 773 774 774 773 772 770 767 765 762 759 757 755 752 750 747 745 742 740 738 736 734 731 728 725 721 718 714 711 707 704 700 697 694 690 687 684 681 678 676 673 671 669 668 667 667 668 669 670 671 673 674 676 678 679 680 682 683 684 685 686
734 737 739 741 743 744 747 749 751 753 755 756 758 761 762 764 765 766 767 768 768 769 770 771 772 773 773 772 772 770 768 766 763 760 758 756 754 752 750 747 745 743 740 738 736 733 730 727 724 720 717 713 709 706 702 698 695 691 688 685 681 678 675 672 670 667 666 665 664 663 664 665 666 668 669 671 672 674 675 677 679 680 681 682 683
735 738 740 742 744 746 748 750 752 754 756 757 759 761 762 764 765 765 766 767 768 769 770 771 772 772 771 771 770 768 767 765 762 760 757 755 753 752 750 748 746 744 741 739 736 733 730 726 723 719 715 711 707 704 700 696 692 689 685 682 679 675 672 669 666 664 662 661 660 660 661 661 662 664 666 668 669 671 673 674 676 677 678 679 681
737 739 741 743 745 747 749 751 753 755 757 758 760 761 762 763 764 764 765 766 767 769 770 770 770 770 769 769 768 767 765 763 760 758 756 755 753 752 751 749 747 744 742 739 736 733 729 725 722 718 714 710 706 702 698 694 691 687 683 680 676 673 669 666 663 661 659 658 657 657 657 658 659 661 663 665 666 668 670 672 673 675 676 678 679
739 741 743 745 747 748 751 752 754 756 757 759 760 761 761 762 763 764 765 766 767 768 769 769 769 769 768 768 767 765 763 762 760 758 757 756 754 753 751 749 747 744 742 738 735 732 729 725 721 717 713 709 705 701 697 694 690 686 682 678 674 670 667 664 661 659 657 655 654 654 654 655 656 658 660 662 664 666 668 669 671 673 674 677 679
741 743 745 746 748 750 752 754 755 757 758 759 760 760 761 762 763 763 765 766 767 768 768 769 769 768 768 767 766 765 763 762 761 760 759 757 755 753 751 749 747 744 741 738 735 732 728 724 721 717 713 709 705 701 697 693 689 685 681 677 673 669 666 663 660 658 655 654 652 651 651 652 653 656 658 660 662 664 666 668 670 671 673 676 678
743 744 746 748 750 751 753 755 756 757 758 759 759 760 761 762 763 764 765 766 767 767 768 768 768 768 768 767 766 765 764 762 761 760 759 757 756 754 752 749 747 744 741 738 735 732 728 725 721 717 713 709 705 701 696 692 688 684 681 677 673 670 666 663 661 658 655 654 652 650 650 651 652 654 656 658 660 663 664 667 669 671 673 676 678
744 746 748 750 752 753 755 756 757 757 758 759 760 761 762 762 764 765 765 765 766 766 767 767 768 768 768 767 766 765 764 762 761 760 759 757 756 754 752 749 747 744 741 738 735 732 729 725 721 717 713 709 705 701 696 692 688 685 681 677 674 670 667 664 661 659 656 655 653 651 650 651 652 653 655 657 659 662 664 666 669 671 673 676 679
746 748 749 751 753 754 756 756 757 758 759 760 761 762 763 764 765 765 765 765 765 766 767 768 768 768 767 766 766 765 763 762 761 760 758 757 756 754 752 750 747 744 741 739 736 733 729 725 722 718 714 710 706 701 697 693 689 685 682 678 675 672 668 665 662 660 658 656 654 653 652 652 653 654 655 657 659 662 664 666 669 671 674 677 680
748 749 751 752 754 755 756 757 758 759 760 761 762 763 764 765 765 765 765 765 766 767 768 768 768 768 767 766 765 764 763 762 760 759 758 757 756 755 753 750 748 745 742 739 736 733 730 726 722 718 714 710 706 702 698 694 690 687 683 679 676 673 670 667 664 662 660 658 657 656 655 654 655 655 657 658 660 662 665 667 670 672 675 678 681
749 751 752 753 754 755 756 758 759 760 762 763 764 764 765 765 765 765 765 766 767 768 768 768 768 767 767 766 765 764 763 762 760 759 758 757 756 755 753 751 749 746 743 740 736 733 730 727 723 719 715 711 707 703 699 695 692 688 684 681 678 675 672 669 666 664 663 661 659 658 657 657 657 658 659 661 662 664 666 669 671 674 677 680 683
751 752 754 755 756 757 758 759 761 762 763 764 765 765 766 766 766 766 767 767 768 768 768 768 768 768 767 766 765 764 763 762 761 759 758 757 756 755 754 752 750 747 744 741 737 734 731 728 724 721 717 713 709 705 701 697 693 689 686 683 680 677 674 671 669 667 665 663 662 661 660 660 661 661 662 664 665 667 669 672 674 676 679 682 685
753 755 756 757 758 759 760 761 762 763 764 765 766 766 767 767 767 768 768 768 769 769 769 769 769 768 768 767 766 765 764 763 761 760 759 758 757 756 754 753 751 748 745 742 739 735 732 729 726 723 719 715 711 707 703 699 695 692 688 685 683 680 677 674 672 670 668 667 665 665 664 664 664 665 666 667 669 671 673 675 678 680 682 685 688
756 757 758 760 760 761 762 763 764 765 766 766 767 768 768 768 769 769 770 770 770 770 769 770 769 769 769 768 767 766 765 763 762 760 759 758 757 756 755 753 751 749 746 743 740 737 734 731 728 724 721 717 713 709 706 702 698 694 691 688 686 683 680 678 675 673 672 670 669 668 668 667 668 669 670 671 673 675 677 679 682 684 687 689 692
760 760 761 762 763 764 765 765 765 766 767 768 769 769 770 770 771 771 771 772 771 771 771 771 770 770 770 769 768 767 766 764 762 761 759 758 757 756 755 753 752 750 747 745 742 739 736 733 730 727 723 720 716 712 709 705 701 698 695 692 689 687 684 681 679 677 676 674 673 673 672 672 672 673 675 676 677 679 681 683 686 688 691 693 696
763 764 765 765 766 767 767 767 767 768 769 770 771 771 772 772 773 773 773 773 773 772 772 772 771 771 771 770 769 768 767 765 763 761 759 758 757 755 754 753 752 751 749 746 744 741 738 735 732 729 726 722 719 716 712 709 705 702 699 696 693 691 688 686 684 682 681 679 678 678 677 677 677 678 680 681 683 684 686 688 691 693 695 698 701
767 768 769 769 770 770 769 769 769 770 771 772 773 773 774 775 775 775 775 775 774 774 773 773 773 772 771 771 770 769 768 766 764 761 760 758 757 755 754 753 752 751 749 747 745 743 741 738 735 732 729 725 722 719 716 713 710 706 703 700 698 695 693 691 689 688 686 685 684 683 682 682 683 684 685 687 688 689 691 693 695 698 700 703 705
Wind_Speed
28 28 27 30 33 33 31 32 33 33 33 32 30 28 27 26 25 23 22 20 17 16 14 13 12 11 9 7 6 4 2 1 2 4 5 6 7 9 10 11 12 13 14 15 15 16 16 16 16 16 15 14 14 14 13 13 13 12 12 12 12 10 8 9 8 12 23 23 19 20 20 20 21 20 19 19 18 16 17 19 21 23 25 26 26
28 28 29 32 35 35 32 32 33 34 34 33 32 31 29 27 26 24 23 22 19 17 16 14 13 12 10 8 6 5 4 3 3 5 6 6 7 9 11 12 13 14 15 15 15 14 14 14 15 17 17 16 15 14 14 13 12 13 12 12 12 11 9 10 10 11 19 24 21 20 21 19 18 18 17 18 19 18 17 18 19 21 23 25 27
28 28 30 32 33 33 33 33 33 34 35 34 33 32 31 29 26 25 24 23 21 19 17 16 15 13 11 8 7 6 5 5 5 6 6 6 8 9 11 13 14 15 16 16 16 15 14 13 13 14 16 17 17 16 15 14 13 14 14 13 13 14 12 11 12 11 16 23 23 20 19 17 17 18 18 18 19 19 18 19 20 21 22 24 26
26 27 29 31 33 36 38 37 35 36 36 37 36 34 33 30 27 26 25 24 22 21 19 18 16 14 12 10 8 7 6 6 6 6 6 7 8 10 11 13 14 15 16 16 17 16 16 15 14 14 15 16 17 17 16 15 15 15 16 16 15 16 15 12 13 13 14 20 23 20 18 18 19 20 20 20 20 19 18 18 19 20 21 22 25
23 25 28 31 33 37 40 37 36 37 39 38 37 36 35 32 29 27 26 25 23 22 21 19 17 15 13 11 9 8 7 7 6 6 6 7 8 9 11 12 14 15 16 17 17 17 16 16 15 15 15 16 16 17 16 16 17 16 16 16 16 16 16 14 14 14 14 18 23 24 21 19 20 22 21 20 20 20 19 18 18 19 20 21 22
20 24 26 30 33 37 39 37 36 38 39 40 39 38 36 33 30 28 27 26 25 24 22 20 18 16 13 11 9 9 8 7 5 5 5 6 7 9 10 12 13 15 16 17 17 17 17 16 16 16 16 17 18 18 18 18 18 18 17 16 16 16 16 15 14 15 16 18 21 24 23 20 20 21 19 17 19 20 20 19 19 18 18 20 21
15 22 26 28 31 35 38 39 38 38 39 39 38 36 35 33 31 30 29 28 27 26 23 21 18 15 13 11 10 8 6 4 3 4 5 6 7 9 11 13 14 15 16 16 16 17 17 17 17 17 16 17 19 19 20 20 20 20 20 20 19 19 18 18 18 17 18 18 20 23 24 21 19 20 19 18 19 21 19 18 18 17 17 18 20
11 17 24 27 29 32 34 37 37 37 35 33 31 31 31 32 31 30 30 30 29 27 25 22 18 15 13 11 10 7 5 4 3 4 5 7 9 11 13 14 15 16 16 17 17 17 18 18 18 19 19 19 20 20 21 21 21 22 23 23 22 22 21 20 20 19 18 18 18 21 24 22 19 20 21 20 19 19 17 15 16 18 19 18 19
16 14 19 25 29 30 31 33 34 34 33 31 31 32 32 32 31 31 31 31 29 27 24 22 19 17 14 12 10 8 7 5 4 4 6 9 12 14 15 16 17 18 19 19 20 20 20 21 21 21 21 21 22 22 22 22 23 24 25 24 24 24 23 21 20 18 17 17 17 19 20 20 18 17 18 17 15 16 18 17 17 19 20 20 19
20 18 17 22 27 28 29 30 32 33 33 33 35 36 36 35 34 34 33 31 28 25 23 21 19 18 16 14 11 10 8 5 3 5 8 10 12 13 14 16 17 18 20 21 22 22 23 23 24 24 24 24 23 24 24 24 24 25 25 25 25 26 25 24 21 18 17 18 18 17 17 19 19 18 17 17 17 18 20 20 19 21 21 19 19
22 20 19 20 23 25 27 28 30 31 32 32 35 37 36 35 34 33 32 29 26 24 22 20 19 17 15 14 12 10 7 4 3 5 7 9 10 11 12 14 16 17 19 20 22 24 24 25 26 26 26 26 26 25 25 25 26 26 26 26 26 27 27 27 25 22 19 18 19 19 18 19 21 20 19 19 18 18 18 18 18 20 18 14 12
23 22 20 20 20 23 25 26 28 29 31 33 34 35 35 34 32 31 31 29 27 24 22 21 18 16 14 13 11 9 6 3 3 3 7 9 10 11 12 14 15 17 19 21 23 24 25 26 26 26 26 26 26 26 26 26 27 27 28 28 28 29 28 28 29 27 23 21 20 21 21 21 23 23 20 19 19 18 18 18 17 17 17 14 11
25 23 21 20 20 22 24 25 27 29 31 33 34 34 35 36 36 34 32 30 28 26 23 20 18 16 15 13 10 8 5 4 2 3 7 9 10 11 13 15 16 19 20 22 24 25 26 27 27 26 26 25 25 25 26 27 28 28 29 30 30 30 30 30 30 29 28 27 25 24 23 22 24 24 21 19 20 20 19 18 18 17 18 18 17
25 23 21 20 20 20 23 25 26 28 29 30 30 31 31 32 33 33 31 30 28 26 24 21 19 17 14 12 10 7 6 5 4 6 8 10 11 13 14 16 18 20 22 24 25 25 26 27 27 28 28 27 26 26 26 27 28 29 30 30 31 31 31 30 29 29 29 30 30 30 28 26 26 27 26 24 24 23 22 21 20 20 21 20 20
23 23 21 19 19 20 22 23 24 25 27 27 27 27 28 29 30 30 28 27 25 24 23 21 19 17 14 11 9 7 6 6 6 8 9 11 12 14 16 17 19 21 24 25 25 25 26 26 27 28 28 28 27 27 27 28 29 30 31 31 30 30 30 29 29 29 29 30 31 32 32 30 28 28 27 25 23 23 24 24 24 23 23 21 21
21 22 21 19 19 20 21 22 23 25 26 28 28 29 31 32 31 29 28 27 25 23 22 20 18 16 14 11 8 6 6 7 8 9 10 12 13 15 17 19 20 22 24 26 26 26 26 26 26 27 27 27 27 26 26 26 28 29 30 31 30 30 31 30 30 30 31 31 32 33 33 32 31 30 30 29 28 27 28 29 28 24 20 18 18
20 20 21 20 20 21 22 22 23 25 26 28 29 32 36 36 33 30 29 28 26 23 21 18 16 15 12 10 8 7 8 9 9 10 12 13 14 15 18 19 20 23 25 26 26 26 25 26 25 25 25 25 26 26 25 26 28 29 29 30 30 31 32 30 29 30 30 31 33 33 33 34 33 33 33 33 33 32 31 32 32 26 19 14 13
21 20 21 21 21 21 22 23 24 25 26 28 30 33 36 35 33 30 29 27 24 22 19 16 13 11 11 10 9 9 10 11 11 12 13 13 14 16 18 20 22 24 26 26 26 26 26 26 24 24 25 26 26 26 26 27 29 29 29 29 31 32 31 29 30 31 31 32 34 34 35 35 34 34 34 33 32 31 31 34 33 26 20 17 14
22 21 21 21 21 21 23 24 25 25 27 30 33 34 34 33 31 28 25 23 21 18 14 11 10 12 13 12 11 11 13 12 12 14 14 15 15 16 19 21 23 25 26 26 26 26 26 26 24 24 26 27 27 27 27 27 28 28 27 28 31 32 29 28 29 31 31 32 32 32 34 34 33 32 33 32 30 30 33 36 33 26 23 22 20
23 22 21 21 21 22 23 25 26 26 28 31 34 34 31 28 26 23 21 19 16 12 10 10 13 15 14 13 13 14 14 14 14 15 16 16 17 18 19 22 24 25 26 26 26 26 26 26 25 26 27 28 28 28 27 27 28 29 28 28 31 31 29 28 29 29 30 31 30 31 33 32 31 31 31 31 29 29 31 35 35 32 27 24 23
24 23 21 21 21 22 24 26 27 28 31 34 35 32 28 25 22 19 18 17 13 11 13 15 16 16 14 15 15 16 16 15 16 17 18 19 19 20 21 23 25 26 27 27 26 26 26 27 27 27 28 28 29 29 29 29 29 31 31 31 33 33 32 32 32 30 31 32 32 33 33 32 32 32 31 30 30 29 30 31 33 35 32 27 25
24 23 21 20 20 22 25 26 27 29 34 38 37 32 28 26 24 20 19 18 16 16 18 17 16 15 15 16 17 16 16 17 18 19 19 20 21 21 23 25 26 28 29 28 26 27 28 29 28 28 28 29 30 31 32 32 32 33 34 35 36 37 37 36 34 32 32 32 32 32 31 30 30 30 29 29 29 28 29 29 30 31 32 32 30
23 22 20 19 20 22 24 25 28 30 31 32 33 32 29 28 26 23 22 22 20 18 16 15 15 15 15 16 16 16 16 18 19 20 20 21 22 23 25 26 27 29 29 28 28 29 30 29 28 28 29 31 33 34 35 35 36 36 37 38 39 39 39 39 37 35 33 32 31 32 31 29 29 29 28 27 27 28 29 30 30 31 32 33 32
22 20 19 19 20 22 24 27 31 31 26 23 25 28 27 27 26 24 22 19 17 15 14 14 13 13 13 14 14 14 15 17 19 20 21 22 23 24 26 28 30 32 31 31 31 31 30 29 29 31 33 34 35 36 37 37 37 37 38 39 39 40 40 40 38 35 33 31 31 31 31 30 30 30 28 27 27 28 29 29 30 33 33 32 31
22 19 18 19 21 22 24 26 29 31 29 26 26 27 25 23 23 21 18 16 14 13 12 10 9 9 10 12 13 14 16 18 19 20 21 22 23 25 27 31 33 33 32 32 32 31 31 32 33 33 33 34 34 35 34 34 34 35 36 37 37 37 36 36 36 33 32 31 30 31 31 30 30 30 30 30 30 29 29 29 30 31 31 29 29
20 18 18 21 24 26 27 28 28 28 27 27 27 26 23 19 17 15 14 13 11 9 7 5 6 7 9 11 13 15 17 19 20 20 21 23 25 27 30 33 34 32 31 30 31 31 31 31 32 32 32 33 33 32 31 32 33 34 34 34 34 33 32 33 33 32 32 32 31 31 32 31 31 32 31 32 32 30 29 29 30 31 31 30 29
18 17 21 24 29 33 35 33 30 28 25 24 23 23 22 19 16 15 14 13 11 8 5 4 4 6 8 10 13 15 17 19 20 22 24 26 28 29 31 33 32 30 28 28 29 29 30 30 30 31 30 30 30 30 30 30 30 31 31 31 30 30 31 32 32 32 33 34 33 32 32 32 33 33 31 31 30 30 29 29 29 29 30 30 29
18 22 27 30 33 36 37 35 32 29 26 24 24 23 21 19 17 14 13 12 11 9 6 4 3 4 7 10 12 15 18 20 22 24 26 27 28 29 31 30 28 27 26 27 28 28 28 28 28 28 27 27 27 27 27 27 27 28 29 29 29 29 29 30 31 32 34 34 33 32 32 32 31 31 30 29 29 28 28 29 29 28 28 28 26
22 29 32 32 34 34 33 31 29 27 24 23 22 20 18 17 15 15 14 12 11 9 6 2 2 5 8 10 12 14 17 20 22 23 24 25 26 26 26 25 25 25 25 25 26 26 26 26 24 24 24 24 24 24 23 24 25 25 26 27 27 28 28 29 30 32 33 32 32 31 31 30 29 29 28 28 28 28 27 28 28 28 27 26 24
27 31 32 32 34 33 30 29 28 28 26 23 21 19 17 16 15 15 14 12 9 6 3 1 3 5 8 10 11 13 16 19 21 23 24 23 22 22 22 22 22 23 22 23 23 23 22 22 21 21 22 22 22 22 22 23 23 23 24 25 26 26 27 28 29 31 32 31 31 31 29 27 26 26 26 26 26 26 27 28 29 28 26 24 22
29 29 30 31 32 31 29 28 29 29 27 25 24 22 20 17 15 14 13 10 7 4 2 3 5 6 8 9 10 12 15 19 21 22 22 21 20 20 20 21 21 21 22 23 21 20 19 19 20 21 22 22 21 22 23 23 23 24 24 25 25 25 26 27 28 29 29 29 29 29 28 26 25 24 24 24 24 24 26 29 29 28 25 24 22
30 29 30 30 29 28 28 29 29 28 26 24 24 23 21 18 16 13 11 8 5 4 4 5 7 7 8 9 11 14 18 20 21 20 19 19 19 19 20 21 21 22 23 22 19 18 18 19 20 21 22 22 22 23 24 24 25 25 25 24 24 25 25 26 27 27 27 27 27 27 26 26 25 24 23 22 22 23 24 26 26 25 25 24 23
31 29 29 29 27 27 29 29 28 26 24 23 23 22 21 19 16 13 10 7 6 6 7 7 7 8 8 9 11 15 18 21 21 20 19 19 19 20 21 21 22 22 22 21 18 19 20 20 21 23 24 24 24 25 25 25 25 25 25 25 25 26 27 27 27 25 25 26 26 26 26 25 24 23 22 22 22 21 20 21 22 23 23 22 21
35 32 32 30 27 27 29 29 27 25 23 21 21 20 19 18 16 14 11 8 8 8 8 7 7 8 8 9 10 14 19 22 22 21 20 20 21 20 20 21 23 25 24 23 21 21 22 22 23 25 25 25 26 26 25 25 26 25 25 25 26 27 28 27 25 23 23 25 25 25 25 24 23 22 21 21 21 21 20 20 20 21 21 20 19
35 33 31 29 28 30 31 28 25 23 22 20 20 20 19 17 15 12 9 7 9 10 9 8 7 7 8 8 10 14 20 23 24 23 22 21 22 21 20 20 22 24 25 25 23 23 24 23 24 25 26 26 26 26 26 26 26 26 25 26 27 27 27 26 23 21 20 22 24 25 24 24 24 23 22 20 20 21 21 21 20 21 21 20 19
31 30 30 29 30 30 28 25 23 22 22 21 21 19 17 15 13 9 6 7 9 10 9 8 7 6 6 7 10 14 19 23 25 25 24 23 23 22 19 19 20 21 23 24 24 24 25 25 25 26 27 26 26 27 26 26 27 26 26 26 26 26 26 25 23 21 19 19 21 23 24 24 23 23 22 21 21 21 21 21 21 22 22 21 20
30 28 29 29 28 27 25 24 23 22 22 21 20 17 15 13 10 7 7 9 10 10 9 7 6 6 6 8 11 15 19 23 26 27 27 26 25 23 20 19 20 21 22 23 24 25 27 27 27 27 27 26 27 27 27 27 27 26 26 26 25 25 24 23 22 20 19 18 19 22 23 24 23 23 22 21 20 21 20 20 21 22 22 22 20
28 28 29 28 26 25 25 24 22 21 20 19 17 14 12 10 7 7 9 11 11 9 8 7 6 7 8 9 12 15 19 23 27 29 29 28 25 22 19 19 21 22 23 24 25 26 27 27 27 28 27 27 27 27 27 26 27 27 26 26 25 23 22 21 20 19 18 18 18 19 22 23 23 23 23 22 20 20 20 21 20 19 19 20 20
25 26 27 25 24 24 25 22 20 19 18 16 13 11 8 6 6 9 12 12 11 9 8 7 7 7 8 9 12 15 18 23 25 26 27 26 24 21 19 20 22 24 24 25 26 27 26 26 27 28 28 27 27 27 26 25 26 27 26 25 23 23 22 20 19 18 17 16 16 16 19 22 23 23 24 23 21 20 20 20 20 19 19 19 19
24 24 22 21 22 23 22 20 18 17 15 12 9 7 4 5 9 13 13 12 11 10 8 7 7 7 7 9 12 14 16 18 21 21 21 22 23 22 21 21 23 25 26 26 27 27 27 27 28 29 29 28 28 27 26 25 25 26 26 24 23 22 21 19 18 17 16 15 14 13 15 19 21 22 22 23 22 21 21 20 20 21 22 21 21
22 20 19 19 20 21 18 16 15 13 11 8 6 5 6 10 13 14 13 12 11 10 8 7 6 5 6 7 10 11 12 14 17 19 19 20 22 22 22 24 25 26 27 27 28 28 28 28 28 29 29 28 28 28 27 27 26 26 25 24 22 22 20 18 16 15 14 12 10 8 10 15 19 20 21 21 21 21 21 21 21 23 24 25 26
19 17 16 17 18 18 16 14 13 12 10 8 8 9 11 14 15 14 13 12 11 9 7 6 4 2 4 6 8 10 10 10 14 17 19 21 22 22 24 27 28 28 28 28 28 28 28 27 27 27 28 28 29 29 29 28 27 26 25 24 22 21 20 18 16 13 11 8 5 2 5 11 17 19 19 20 20 21 22 22 23 25 26 26 28
18 17 18 18 18 17 15 14 13 13 12 12 13 13 13 14 13 12 12 11 10 7 6 4 2 1 4 5 7 9 9 10 11 15 18 20 21 22 25 28 29 29 29 27 27 28 28 27 27 28 28 28 29 29 28 27 26 26 25 23 22 20 19 17 15 13 10 6 2 2 6 10 14 17 19 20 22 22 23 23 24 25 26 27 29
18 18 18 19 18 17 16 15 15 15 15 15 15 14 13 13 13 11 11 11 9 7 5 3 2 3 4 6 7 9 10 10 11 13 15 18 19 20 24 27 29 30 29 27 26 28 29 28 28 29 30 30 30 29 28 26 25 24 23 22 21 20 18 16 14 12 9 5 4 6 8 11 14 17 19 21 23 24 25 25 26 26 27 27 28
18 18 18 19 19 18 18 17 17 16 15 15 15 15 14 13 13 12 11 10 8 7 6 4 4 5 6 7 8 9 10 10 11 11 13 15 17 18 21 25 27 29 29 27 26 27 28 28 29 30 30 31 31 29 28 26 24 22 21 20 19 18 17 14 12 9 7 5 6 8 11 13 16 18 19 21 23 24 24 25 27 27 27 27 26
19 19 19 19 19 19 18 17 16 16 15 15 15 15 14 13 13 12 11 10 8 7 6 6 6 7 8 8 9 9 10 11 11 11 12 14 15 16 19 22 25 27 28 27 26 26 27 28 29 29 29 30 31 30 29 26 24 22 21 19 17 16 15 13 10 8 7 7 8 11 13 15 17 18 20 21 22 23 24 25 26 27 27 27 27
20 19 19 19 19 19 18 16 16 15 15 15 14 14 13 13 12 11 10 9 8 7 7 7 8 8 9 9 9 10 10 11 12 11 11 12 13 14 16 19 23 25 27 26 26 26 26 27 28 29 29 30 30 30 30 28 25 23 21 20 18 17 15 13 11 10 9 9 11 14 16 18 19 20 21 23 24 24 25 25 26 27 28 28 29
20 20 19 19 18 18 17 16 15 15 15 14 13 13 12 12 11 11 10 9 9 8 8 8 9 9 9 10 10 10 11 11 12 12 11 11 12 12 14 16 19 22 24 25 26 26 26 27 28 29 29 30 30 31 30 29 26 24 22 20 18 17 15 14 13 13 13 14 15 17 19 21 22 22 23 25 25 26 27 26 26 27 28 28 29
19 19 19 18 17 16 15 14 15 14 13 12 12 12 12 12 12 11 11 10 10 9 9 9 9 9 10 10 11 11 12 12 13 13 13 12 12 11 11 13 16 19 21 23 25 26 26 27 28 29 29 30 30 31 31 30 28 26 23 20 17 16 16 16 16 17 17 18 20 22 23 24 25 25 25 26 27 27 28 28 28 29 29 28 29
19 18 18 17 16 15 14 15 15 15 14 13 13 13 13 12 12 12 11 11 10 10 10 10 9 9 10 10 11 11 12 12 13 13 14 14 13 11 10 10 13 15 18 20 23 25 26 27 28 29 30 30 29 30 31 30 29 26 23 20 18 18 18 18 19 20 21 22 24 25 26 27 27 27 27 27 28 29 29 29 29 29 29 29 28
19 18 17 16 15 15 15 16 16 15 15 14 14 13 13 13 12 12 11 11 12 12 11 11 10 10 10 10 11 11 11 12 13 13 14 14 13 12 11 9 10 12 14 17 20 22 24 26 28 29 30 30 30 30 30 31 29 26 23 21 20 20 20 21 21 22 23 25 26 27 28 29 29 28 28 28 29 29 29 29 29 29 29 28 28
Wind_Direction
229 227 223 221 226 232 233 231 230 230 229 228 228 228 227 226 223 219 216 213 212 212 213 214 215 213 206 200 200 206 232 278 335 333 330 341 353 359 1 2 2 360 354 350 347 344 342 341 341 342 341 337 335 335 335 335 333 329 327 324 318 320 315 291 284 288 285 282 283 288 295 303 304 304 306 309 309 305 297 290 284 284 282 281 280
227 226 225 223 224 230 235 236 233 232 231 230 228 228 228 227 223 220 216 213 212 213 214 214 213 211 207 209 218 232 248 266 294 306 313 326 343 351 355 357 356 355 352 349 345 339 335 333 334 336 336 333 331 331 331 330 330 325 322 320 314 314 316 301 291 291 289 288 289 291 294 299 298 297 301 306 308 306 301 292 287 284 283 282 280
228 226 226 226 226 229 235 239 238 234 231 230 228 227 228 227 224 220 215 211 209 210 213 213 211 210 213 221 235 248 256 267 282 293 303 318 334 344 349 349 348 347 346 345 343 337 330 327 328 330 328 325 324 325 325 323 322 319 315 313 309 306 309 303 290 287 291 294 295 296 296 297 295 291 294 302 306 307 304 298 292 286 281 281 279
230 225 223 225 228 231 233 233 234 234 232 230 227 226 226 225 223 219 214 210 207 206 207 208 208 209 216 229 241 251 259 266 275 287 299 315 331 339 342 342 339 339 339 340 339 335 329 323 322 324 322 318 317 318 319 318 316 314 309 306 305 303 303 301 291 286 290 294 296 297 297 297 295 292 292 296 301 304 305 300 297 290 283 278 276
236 229 224 223 226 231 232 230 230 231 231 229 226 223 223 221 218 214 210 207 205 203 202 202 204 207 213 226 237 246 254 262 272 290 307 319 329 334 335 333 331 332 332 332 333 331 327 321 316 315 314 311 311 311 311 311 311 309 305 303 303 301 300 297 291 287 285 289 294 298 300 299 296 294 293 294 296 301 303 301 299 296 289 281 277
246 237 230 226 224 227 231 231 230 230 229 229 226 221 219 216 212 209 207 204 201 200 199 199 201 203 207 216 226 234 243 258 279 298 310 318 326 328 326 324 323 323 323 323 323 322 321 317 313 310 307 306 306 305 304 303 303 302 302 301 301 299 297 294 292 288 285 286 290 295 298 300 299 297 295 294 295 299 303 304 303 301 296 291 286
261 244 236 231 227 227 228 231 232 231 229 227 223 217 214 211 207 204 202 200 197 195 196 196 197 199 202 204 209 218 228 244 273 289 299 310 317 317 314 314 313 312 312 312 312 312 311 310 308 307 304 302 301 301 302 300 299 297 296 297 297 296 294 293 291 288 285 284 284 287 292 295 296 295 295 295 294 293 297 302 304 305 306 302 297
305 261 245 238 234 232 231 231 231 230 227 223 217 214 213 209 204 200 197 196 195 194 192 191 191 192 193 192 191 191 194 203 228 259 288 304 309 308 308 307 306 305 304 304 303 303 302 301 300 299 299 298 297 297 297 297 296 295 293 294 294 293 292 291 290 288 285 281 280 283 287 289 290 291 295 298 294 288 289 297 299 302 307 307 303
336 301 265 249 243 239 235 232 230 228 225 219 215 215 213 208 202 197 194 193 193 190 189 188 187 184 181 178 175 173 178 190 214 264 295 306 309 309 308 306 304 303 302 301 299 298 296 295 294 293 293 294 294 293 292 292 291 290 290 291 291 290 289 288 287 287 285 282 281 283 285 286 287 290 292 293 292 289 292 295 294 296 303 306 303
336 323 294 267 255 247 239 234 230 227 224 218 214 213 210 205 200 194 191 189 187 184 184 185 185 181 175 170 167 167 174 190 237 294 313 322 322 319 314 309 306 304 303 302 300 298 296 294 292 291 291 291 290 290 289 289 287 285 286 286 285 285 285 284 283 282 282 282 282 282 282 282 284 286 286 287 290 292 292 292 291 293 299 302 299
332 324 310 290 270 254 242 235 229 224 219 215 212 209 204 198 193 188 185 183 181 180 180 178 176 175 171 165 163 166 175 204 272 315 339 351 348 338 329 322 317 313 310 308 306 304 302 299 297 295 293 291 290 289 288 287 286 284 283 283 282 280 278 278 278 278 278 278 278 277 277 279 282 283 284 286 289 289 290 292 293 293 291 287 286
328 321 314 304 282 259 246 236 226 219 215 213 210 205 197 190 186 185 183 179 177 175 175 173 170 168 166 163 164 171 188 228 273 335 359 7 4 353 346 339 332 327 322 317 313 311 308 306 303 300 296 294 292 290 288 286 284 283 282 282 281 279 275 272 272 273 274 274 274 272 270 274 280 281 281 285 286 285 286 289 290 288 282 273 266
323 318 314 307 288 264 247 236 226 218 216 214 208 201 193 187 185 184 181 177 174 171 171 173 170 168 167 167 173 188 210 228 254 331 344 353 358 354 349 344 338 335 331 325 320 316 312 309 306 303 300 297 294 291 288 286 284 283 282 281 280 278 274 270 267 268 270 271 270 269 268 270 273 275 277 281 283 283 283 282 282 282 279 273 268
319 315 311 305 292 270 248 235 226 218 213 209 202 194 187 181 179 179 177 173 170 168 169 171 169 170 175 179 188 204 216 225 260 308 323 333 343 345 344 342 338 335 333 329 324 319 314 310 306 303 302 300 296 293 290 289 287 285 284 281 279 276 273 269 266 266 267 267 267 267 269 270 270 273 276 277 277 277 276 277 278 278 275 273 274
312 311 308 302 291 271 249 233 222 212 205 201 194 186 179 174 173 174 174 173 172 170 170 170 172 176 183 188 194 205 217 234 267 297 312 322 330 336 339 338 336 334 332 330 326 321 316 311 305 302 300 299 297 295 293 292 290 287 285 281 278 275 271 268 267 267 267 266 265 267 270 271 272 274 275 274 273 274 275 274 271 271 273 276 279
305 306 303 297 286 268 248 231 216 205 199 195 189 180 176 175 176 176 176 175 174 173 172 174 180 184 188 193 197 207 227 246 270 295 309 316 322 329 335 335 332 331 329 329 326 321 317 311 305 301 298 297 297 296 295 294 291 288 285 282 279 275 272 270 270 269 268 268 268 269 271 272 273 273 272 272 272 274 278 277 273 273 277 278 277
297 300 298 292 281 263 245 226 211 202 197 192 184 178 176 175 176 176 176 174 172 172 176 180 186 190 194 202 209 223 242 253 273 294 304 311 317 326 332 331 329 327 327 327 324 320 316 311 306 300 296 295 295 294 294 293 292 290 288 285 282 278 275 274 273 271 270 270 271 271 271 272 272 272 271 270 269 271 273 272 272 276 278 273 268
289 291 292 288 279 261 240 223 209 201 195 187 181 176 174 173 174 176 176 173 170 171 176 179 186 201 214 221 230 246 253 258 275 291 298 304 312 324 330 328 326 325 324 323 321 318 314 310 304 297 293 293 294 293 293 292 290 289 288 286 283 280 278 278 276 275 275 274 273 272 271 270 270 271 271 269 267 264 261 261 263 266 265 261 263
283 286 289 288 279 260 238 222 211 200 190 184 180 176 171 170 170 171 173 172 168 168 175 185 204 217 224 233 245 254 256 262 277 288 294 299 308 322 328 325 322 322 321 318 316 313 310 306 300 295 292 293 293 293 293 291 287 285 286 285 281 279 280 280 278 278 277 274 272 270 269 268 268 270 271 270 267 261 255 255 256 254 251 254 258
282 285 287 285 274 256 236 220 209 199 189 182 175 169 164 163 163 164 168 169 166 169 184 202 216 220 226 240 251 254 257 266 279 288 293 298 306 319 325 323 320 319 317 314 311 309 305 302 298 295 294 293 293 293 292 289 285 283 282 280 277 278 281 281 279 278 276 273 271 269 269 269 269 269 269 267 266 262 256 252 251 247 244 247 250
282 283 284 280 267 248 230 216 207 199 188 176 166 159 156 155 156 161 167 168 171 186 196 203 213 223 234 245 250 253 259 270 284 292 295 298 305 315 320 321 322 319 314 311 309 305 302 301 298 297 296 296 295 294 292 289 285 282 279 276 275 277 279 280 279 278 275 273 272 270 269 268 267 266 264 261 260 260 258 253 248 244 242 242 244
280 280 278 272 257 236 220 210 200 189 177 166 159 154 152 153 155 162 171 177 183 192 198 205 216 229 239 244 248 256 264 275 287 295 298 301 306 312 316 320 323 320 314 309 307 304 303 302 299 298 297 297 296 295 292 289 286 281 278 276 276 277 277 276 276 276 274 272 271 269 266 265 264 261 258 256 255 255 255 253 248 245 245 245 244
277 276 271 261 242 223 207 194 180 171 165 159 156 153 154 158 163 169 176 182 185 189 198 211 222 232 240 245 252 264 276 287 294 300 306 308 309 311 314 318 322 320 314 308 305 305 304 302 300 299 300 299 297 295 293 290 286 283 280 278 277 276 274 272 270 269 269 268 266 265 263 261 261 259 256 254 253 252 252 252 250 247 247 247 245
272 269 260 243 224 205 189 178 168 161 155 153 154 155 157 165 171 173 174 178 183 192 203 215 225 235 246 255 267 281 293 301 304 309 314 314 313 315 317 320 322 320 315 309 306 306 304 302 302 302 302 300 298 296 293 290 288 285 283 282 280 276 272 269 265 262 261 260 260 260 260 258 256 255 254 253 253 253 252 251 251 247 241 238 240
266 259 242 219 198 180 169 162 157 154 152 153 155 157 161 168 170 171 173 177 186 196 204 214 229 243 256 272 289 302 308 311 314 318 321 321 320 321 321 321 321 319 315 310 309 308 306 305 306 305 303 301 298 296 293 290 289 288 286 284 281 276 270 265 261 256 253 252 254 255 255 254 252 251 252 254 255 256 253 249 247 244 240 240 245
257 240 213 191 172 158 149 143 143 147 152 155 155 155 157 161 164 170 178 179 180 184 187 202 234 257 273 289 304 314 317 319 322 326 328 327 326 324 322 321 321 320 317 313 312 311 309 308 307 304 302 301 298 295 293 292 293 292 289 286 281 275 267 262 257 252 249 249 250 250 250 250 251 252 254 255 254 253 250 246 242 240 242 248 254
238 206 179 166 156 147 141 140 145 152 154 156 157 154 153 157 163 172 177 168 156 156 168 198 243 274 291 306 317 321 322 324 328 332 332 330 327 325 324 323 323 323 320 317 315 313 310 308 307 305 304 303 301 298 296 295 294 292 290 287 282 276 270 264 258 253 251 250 250 250 250 252 252 252 252 251 250 248 246 242 238 237 239 243 247
208 174 157 153 149 146 143 146 152 157 159 164 167 166 166 167 165 161 158 151 145 149 169 194 241 292 309 320 325 324 326 331 336 337 335 332 330 328 326 326 326 324 321 318 317 316 314 312 311 309 308 307 303 300 298 295 293 290 289 288 285 282 278 272 264 258 254 253 252 252 253 253 252 250 247 246 245 244 242 238 235 234 234 234 235
178 157 150 147 146 145 147 152 157 161 165 168 169 167 166 162 152 141 137 141 146 151 161 181 304 327 333 338 336 332 335 341 343 340 335 331 329 328 328 329 328 324 323 324 324 321 319 317 314 312 310 307 303 300 297 295 293 291 290 290 290 288 284 277 267 260 256 253 251 250 250 249 248 246 244 242 241 241 239 234 231 230 229 228 230
158 151 147 145 145 147 151 158 164 168 166 161 156 151 148 146 145 141 138 141 147 148 141 30 7 2 359 359 356 352 351 349 344 339 333 330 329 329 330 332 332 332 334 336 332 325 320 316 314 312 309 305 303 301 299 297 295 293 293 294 292 289 285 278 271 264 258 252 248 247 246 244 242 240 238 237 237 237 235 231 228 226 225 226 229
146 145 144 145 149 153 155 160 164 164 160 155 151 147 143 142 143 141 138 139 141 133 95 65 58 38 15 4 3 5 2 353 345 340 338 336 337 337 338 339 341 344 345 342 333 324 318 314 311 309 306 303 301 301 300 300 298 296 296 295 292 289 286 281 276 269 259 252 247 245 243 240 238 236 234 233 234 234 230 227 224 223 224 226 227
139 139 142 146 151 151 148 149 151 150 150 151 152 150 146 143 142 142 142 142 133 115 105 92 70 44 21 12 12 10 4 356 350 347 347 347 348 347 347 349 351 352 351 345 334 322 318 314 310 309 308 305 303 303 302 301 299 297 296 294 293 292 289 286 285 276 262 251 246 242 240 237 235 234 231 229 230 227 221 217 217 221 225 226 226
131 134 137 139 141 141 140 142 146 149 151 153 154 154 150 145 146 150 152 143 121 111 110 97 68 43 28 24 22 15 5 360 358 358 359 359 358 355 353 355 356 355 352 346 336 326 323 319 315 313 311 309 307 306 305 302 300 298 296 293 291 292 291 292 292 283 266 252 245 241 239 236 233 231 229 226 225 223 218 216 218 222 224 223 222
123 127 132 137 143 146 147 149 152 153 154 154 156 157 155 152 152 157 159 146 127 119 111 93 66 46 35 30 26 17 9 6 6 7 7 6 3 360 357 358 360 0 357 349 340 332 327 322 318 317 315 312 311 310 308 306 304 301 298 296 294 295 295 295 294 286 270 254 244 240 238 234 229 227 224 221 220 222 224 225 223 221 220 220 220
132 139 147 154 157 156 155 156 155 152 152 151 152 153 155 157 159 161 158 142 128 123 114 93 67 45 34 32 26 16 12 11 12 12 11 10 7 5 3 0 358 356 354 348 341 333 328 323 320 319 317 315 314 313 311 310 308 305 302 300 298 298 298 295 293 290 278 258 245 239 236 232 228 224 220 218 217 218 221 223 222 221 221 220 216
154 159 163 163 158 155 156 157 154 152 151 149 148 151 157 161 162 159 148 131 123 119 113 98 75 50 36 30 23 17 14 14 14 15 14 12 10 9 6 360 352 347 343 342 338 334 330 327 324 322 320 318 317 317 315 314 312 310 308 305 302 300 299 297 296 296 288 270 253 242 235 230 226 221 218 217 216 217 219 219 220 222 221 217 206
160 161 160 158 157 158 160 159 155 152 151 150 153 160 164 162 157 147 137 130 122 115 109 100 82 62 46 29 19 18 16 15 16 17 16 14 12 10 5 357 351 344 339 338 337 334 332 330 328 326 324 322 322 323 322 320 319 317 315 313 309 306 305 304 303 301 296 282 265 247 235 229 224 219 215 214 214 216 217 216 218 220 216 205 192
159 160 159 159 161 162 161 158 155 152 152 156 162 165 160 153 143 134 133 131 125 116 108 94 72 55 43 27 16 15 16 15 15 17 15 12 10 5 359 354 351 347 342 339 338 336 335 333 332 330 329 328 328 328 328 326 325 324 322 320 318 317 317 317 315 311 303 291 275 255 238 229 223 217 213 211 211 211 213 213 213 207 196 185 176
159 160 160 162 164 163 161 159 156 156 159 162 162 159 155 147 139 139 138 134 129 123 111 93 72 53 39 25 14 14 16 15 13 11 10 8 5 1 356 354 352 349 346 342 340 339 338 337 336 335 334 334 333 334 333 332 331 330 329 327 326 328 329 330 327 322 313 300 286 266 242 227 220 216 212 210 209 208 207 206 199 185 174 168 165
155 157 161 165 165 163 162 160 159 159 159 156 153 156 160 144 138 140 141 137 133 127 111 90 74 55 35 20 12 11 14 14 10 7 6 5 3 0 358 355 351 349 347 345 343 341 340 340 340 340 339 338 338 338 338 338 337 337 336 335 335 336 338 339 337 331 322 311 298 278 248 225 214 209 206 205 205 203 197 191 182 172 164 159 152
154 156 159 162 162 160 159 156 153 151 149 146 149 155 148 139 139 141 140 136 132 125 110 92 78 55 28 13 7 6 8 11 10 8 8 7 4 1 358 355 352 350 349 348 347 344 342 342 343 343 343 342 343 343 344 344 344 343 343 343 343 342 344 346 347 341 331 318 303 280 244 218 205 199 195 193 193 192 186 178 169 161 155 151 146
151 149 148 151 153 152 147 140 138 137 134 130 128 127 132 137 140 139 136 130 127 124 116 104 92 49 7 359 357 357 2 11 11 10 11 11 7 3 1 358 356 353 351 350 350 349 347 345 345 347 347 346 347 348 349 349 349 350 348 348 348 349 350 352 353 351 343 331 313 265 210 198 193 190 186 181 177 175 171 165 158 151 147 146 143
139 136 136 140 143 142 135 129 127 124 120 117 115 115 123 131 131 127 122 117 114 116 116 107 92 359 344 350 351 353 0 10 12 10 12 14 11 6 3 1 0 358 355 354 355 355 354 351 350 352 353 353 353 354 354 353 354 356 354 353 354 356 358 359 359 358 359 2 24 122 152 167 172 172 170 168 165 162 158 153 148 145 143 142 141
131 129 129 131 132 130 126 122 119 116 112 111 110 110 114 117 114 107 103 99 95 94 91 75 30 350 347 355 360 359 2 9 12 8 10 13 12 8 5 4 2 1 359 358 359 1 1 358 356 357 360 0 0 0 360 0 2 3 1 359 1 3 4 5 4 5 11 30 76 114 130 141 148 151 152 154 154 151 147 145 143 141 140 140 139
129 128 127 126 124 121 118 117 115 114 112 110 107 105 104 103 99 94 91 89 86 81 74 57 31 15 9 10 11 6 3 6 9 6 6 11 12 8 7 6 4 2 2 2 3 4 5 4 2 2 3 5 5 5 5 7 10 12 10 8 9 11 12 10 8 11 24 53 91 114 123 129 134 136 138 142 145 144 142 141 140 138 137 137 136
127 127 125 122 119 115 114 114 113 112 110 106 101 98 94 90 88 86 83 81 80 73 61 47 33 24 18 16 16 12 5 5 6 4 4 9 10 8 8 8 6 4 5 6 7 8 9 9 7 6 6 8 9 9 10 13 16 19 20 19 18 19 20 19 18 26 44 67 92 111 119 121 124 127 130 132 134 134 134 134 135 135 134 133 132
122 120 118 117 115 113 111 112 110 106 102 97 92 89 84 80 77 75 71 67 62 54 45 35 27 20 14 11 10 9 6 4 4 2 1 5 7 8 10 10 8 7 9 12 13 13 13 13 13 12 11 12 14 14 15 18 22 25 27 27 25 26 28 31 38 51 68 82 97 108 112 113 115 118 122 125 125 125 125 127 128 129 130 129 129
114 113 112 111 109 108 106 104 101 95 90 85 80 74 70 65 61 56 50 44 38 33 28 22 15 11 8 5 3 3 2 1 0 360 0 2 4 7 11 12 10 10 13 16 18 18 18 18 18 16 15 16 18 20 20 23 27 31 33 33 30 31 37 45 55 68 82 92 99 104 107 108 109 112 115 118 119 120 120 121 122 124 124 125 126
105 106 105 102 99 97 94 91 87 82 76 71 67 63 59 56 51 45 39 33 30 25 19 13 7 4 2 359 357 358 360 360 358 357 357 359 1 3 10 15 13 11 15 20 22 21 21 22 22 20 19 19 21 24 26 27 30 35 39 40 37 39 47 57 67 78 87 94 98 101 102 104 104 106 110 113 115 117 117 117 119 120 120 120 121
95 95 94 91 87 85 83 80 78 74 69 66 63 59 55 52 48 42 36 31 27 22 17 11 6 360 355 353 352 352 353 355 355 355 354 356 358 358 4 15 16 12 13 20 23 22 23 25 25 24 24 24 25 28 31 31 32 37 45 48 47 49 57 65 73 81 87 91 94 97 99 100 101 102 105 109 111 112 114 115 116 117 117 118 119
83 81 81 80 78 77 76 74 72 68 65 63 60 57 54 53 49 44 39 34 30 25 19 13 7 1 357 354 349 346 347 351 355 357 355 355 357 357 358 8 16 10 7 13 19 22 24 27 28 27 26 27 28 31 34 35 36 40 48 56 58 60 64 70 77 82 87 89 91 93 95 96 97 98 101 104 107 109 110 111 112 113 113 113 115